Japanese version Home page |
Updated on February 8, 2021 |
|
Orbital ElementsEpoch 2013 Mar. 9.0 TT = JDT 2456360.5 T 2013 Feb. 23.34405 TT MPC q 2.4418405 (2000.0) P Q n 0.10822132 Peri. 38.45746 -0.47393624 -0.83819962 a 4.3610811 Node 81.36269 +0.72522738 -0.54535231 e 0.4400837 Incl. 15.83815 +0.49942935 -0.00350150 P 9.11 From 580 observations 1931 Jan. 12-2013 May 21, mean residual 0".5.
|
Magnitudes Graphm1 = 12.0 + 5 log d + 10.0 log r
|
The orbital elements are published on M.P.E.C. 2014-J58.
|